Flag for U.S.A. Weather past 2 weeks in Wake Island, Wake Island, U.S.A.

Now
83 °F

Clear.


Feels Like: 91 °F
Forecast: 81 / 87 °F
Wind: 12 mph from East

Location: Wake Island Airfld

Current Time: Aug 2, 2015 at 10:28:51 PM

Latest Report: Aug 2, 2015 at 9:58 PM


Visibility: N/A

Pressure: 29.91 "Hg

Humidity: 79%

Dew point: 76 °F

Location of Wake IslandLocation

Historic Weather in Wake Island — Graph

°F

Wake Island temperature yesterday

Maximum temperature yesterday: 88 °F (at 3:58 PM)
Minimum temperature yesterday: 80 °F (at 11:58 PM)
Average temperature yesterday: 85 °F

Past Weeks' High & Low Weather Summary

 TemperatureHumidityPressure
High89 °F (Jul 28, 1:58 PM)94% (Aug 2, 4:58 AM)29.97 "Hg (Aug 2, 4:58 AM)
Low79 °F (Aug 2, 2:03 AM)67% (Jul 23, 12:58 PM)29.78 "Hg (Jul 30, 3:03 PM)
Average84 °F78%29.88 "Hg
* Reported Jul 22 11:58 AM — Aug 2 8:58 PM, Wake Island, Weather by CustomWeather, © 2015

Note: Actual official high and low records may vary slightly from our data, if they occured in-between our weather recording intervals... More about our weather records

Advertising

Wake Island weather history for previous 24 hours

 ConditionsComfort  
Time TempWeatherWind HumidityBarometerVisibility
8:58 PM
Sun, Aug 2
83 °FPassing clouds.13 mph77%29.91 "HgN/A
7:58 PM83 °FSunny.8 mph76%29.89 "HgN/A
6:58 PM84 °FScattered clouds.10 mph74%29.88 "HgN/A
5:58 PM85 °FScattered clouds.13 mph74%29.88 "HgN/A
4:58 PM86 °FPassing clouds.14 mph72%29.87 "HgN/A
3:58 PM87 °FPassing clouds.14 mph72%29.88 "HgN/A
2:58 PM87 °FPassing clouds.13 mph73%29.89 "HgN/A
1:58 PM87 °FSunny.13 mph73%29.90 "HgN/A
12:58 PM86 °FScattered clouds.13 mph72%29.92 "HgN/A
11:58 AM84 °FLight rain. Broken clouds.13 mph73%29.94 "HgN/A
10:58 AM85 °FScattered clouds.16 mph77%29.95 "HgN/A
9:58 AM85 °FScattered clouds.13 mph78%29.94 "HgN/A
8:58 AM84 °FScattered clouds.14 mph79%29.94 "HgN/A
7:58 AM83 °FScattered clouds.12 mph83%29.92 "HgN/A
6:58 AM81 °FClear.13 mph85%29.91 "HgN/A
5:58 AM81 °FPassing clouds.12 mph88%29.90 "HgN/A
4:58 AM79 °FPartly cloudy.6 mph94%29.89 "HgN/A
3:58 AM81 °FOvercast.5 mph86%29.90 "HgN/A
2:58 AM80 °FPartly cloudy.10 mph88%29.90 "HgN/A
2:03 AM79 °FLight rain. Overcast.14 mph84%29.89 "HgN/A
12:58 AM80 °FOvercast.15 mph85%29.93 "HgN/A
11:58 PM
Sat, Aug 1
80 °FPartly cloudy.16 mph82%29.95 "HgN/A
10:58 PM82 °FPassing clouds.17 mph81%29.95 "HgN/A
Weather by CustomWeather, © 2015

See weather overviewHow to use our weather pages